Time,TemperatureF,DewpointF,PressureIn,WindDirection,WindDirectionDegrees,WindSpeedMPH,WindSpeedGustMPH,Humidity,HourlyPrecipIn,Conditions,Clouds,dailyrainin,SoftwareType,DateUTC
2013-04-02 00:02:00,56.4,48.7,29.67,East,90,2.5,9.8,75,0.06,,,0.00,WUHU216HW,2013-04-01 22:02:00,
2013-04-02 00:07:00,56.4,48.5,29.67,South,169,3.2,9.8,75,0.06,,,0.00,WUHU216HW,2013-04-01 22:07:00,
2013-04-02 00:12:00,56.4,48.2,29.68,ESE,113,0.0,4.4,74,0.06,,,0.00,WUHU216HW,2013-04-01 22:12:00,
2013-04-02 00:17:00,56.6,48.9,29.67,SE,144,7.3,10.2,75,0.06,,,0.00,WUHU216HW,2013-04-01 22:17:00,
2013-04-02 00:23:00,57.0,49.1,29.66,SE,135,9.8,10.2,75,0.08,,,0.02,WUHU216HW,2013-04-01 22:23:00,
2013-04-02 00:28:00,57.0,48.7,29.66,ESE,113,3.1,9.8,74,0.08,,,0.02,WUHU216HW,2013-04-01 22:28:00,
2013-04-02 00:33:00,56.8,48.7,29.66,ESE,113,7.3,7.3,74,0.08,,,0.02,WUHU216HW,2013-04-01 22:33:00,
2013-04-02 00:38:00,57.0,48.7,29.65,SE,135,5.1,8.9,74,0.05,,,0.02,WUHU216HW,2013-04-01 22:38:00,
2013-04-02 00:43:00,57.3,49.2,29.65,SSE,158,2.6,10.5,75,0.05,,,0.02,WUHU216HW,2013-04-01 22:43:00,
2013-04-02 00:48:00,57.3,49.4,29.65,SE,135,3.8,12.5,75,0.05,,,0.04,WUHU216HW,2013-04-01 22:48:00,
2013-04-02 00:53:00,57.2,48.7,29.65,SSE,154,4.6,12.5,74,0.07,,,0.06,WUHU216HW,2013-04-01 22:53:00,
2013-04-02 00:58:00,57.3,49.1,29.65,SE,135,8.5,11.6,74,0.06,,,0.06,WUHU216HW,2013-04-01 22:58:00,
2013-04-02 01:03:00,57.3,49.1,29.65,SE,135,4.4,8.5,74,0.06,,,0.06,WUHU216HW,2013-04-01 23:03:00,
2013-04-02 01:08:00,57.5,49.2,29.65,SSE,164,5.4,8.0,74,0.06,,,0.06,WUHU216HW,2013-04-01 23:08:00,
2013-04-02 01:13:00,57.5,49.2,29.64,East,90,2.9,8.2,74,0.06,,,0.06,WUHU216HW,2013-04-01 23:13:00,
2013-04-02 01:18:00,57.7,49.4,29.64,SSE,158,2.2,8.2,74,0.06,,,0.06,WUHU216HW,2013-04-01 23:18:00,
2013-04-02 01:23:00,57.9,49.6,29.64,ESE,113,7.8,7.8,74,0.04,,,0.06,WUHU216HW,2013-04-01 23:23:00,
2013-04-02 01:28:00,58.1,49.8,29.64,WNW,293,3.5,7.8,74,0.04,,,0.06,WUHU216HW,2013-04-01 23:28:00,
2013-04-02 01:33:00,58.1,49.8,29.64,SSE,158,10.2,10.2,74,0.07,,,0.09,WUHU216HW,2013-04-01 23:33:00,
2013-04-02 01:38:00,58.1,49.8,29.63,East,88,3.5,10.2,74,0.07,,,0.09,WUHU216HW,2013-04-01 23:38:00,
2013-04-02 01:43:00,57.9,49.6,29.64,West,280,1.5,8.9,74,0.07,,,0.09,WUHU216HW,2013-04-01 23:43:00,
2013-04-02 01:48:00,57.3,48.3,29.64,South,180,3.8,8.9,72,0.05,,,0.09,WUHU216HW,2013-04-01 23:48:00,
2013-04-02 01:53:00,57.5,47.8,29.64,SSW,203,10.7,10.7,70,0.05,,,0.11,WUHU216HW,2013-04-01 23:53:00,
2013-04-02 01:58:00,57.9,48.2,29.64,SSW,203,14.0,19.6,70,0.07,,,0.13,WUHU216HW,2013-04-01 23:58:00,
2013-04-02 02:03:00,57.2,46.2,29.65,South,171,5.2,19.6,67,0.09,,,0.15,WUHU216HW,2013-04-02 00:03:00,
2013-04-02 02:08:00,57.0,44.5,29.65,SSE,161,3.5,13.1,63,0.11,,,0.17,WUHU216HW,2013-04-02 00:08:00,
2013-04-02 02:13:00,57.0,44.1,29.64,SSW,203,1.5,10.2,62,0.11,,,0.17,WUHU216HW,2013-04-02 00:13:00,
2013-04-02 02:18:00,56.8,43.5,29.64,SW,225,2.2,4.6,61,0.11,,,0.17,WUHU216HW,2013-04-02 00:18:00,
2013-04-02 02:23:00,56.8,42.6,29.64,SW,225,3.8,4.6,59,0.13,,,0.19,WUHU216HW,2013-04-02 00:23:00,
2013-04-02 02:28:00,57.0,41.9,29.64,South,180,1.5,7.1,57,0.13,,,0.19,WUHU216HW,2013-04-02 00:28:00,
2013-04-02 02:33:00,57.2,41.9,29.63,SSE,158,7.3,7.3,57,0.10,,,0.19,WUHU216HW,2013-04-02 00:33:00,
2013-04-02 02:38:00,57.5,43.8,29.63,SSE,158,4.7,7.3,60,0.10,,,0.19,WUHU216HW,2013-04-02 00:38:00,
2013-04-02 02:43:00,57.7,44.7,29.63,SW,216,6.4,7.8,62,0.10,,,0.19,WUHU216HW,2013-04-02 00:43:00,
2013-04-02 02:48:00,57.7,45.1,29.63,SSE,163,2.5,10.7,63,0.08,,,0.19,WUHU216HW,2013-04-02 00:48:00,
2013-04-02 02:54:00,57.9,45.3,29.63,SW,225,8.7,10.7,63,0.08,,,0.21,WUHU216HW,2013-04-02 00:54:00,
2013-04-02 02:59:00,57.9,46.1,29.63,West,270,2.2,13.8,65,0.06,,,0.21,WUHU216HW,2013-04-02 00:59:00,
2013-04-02 03:05:00,57.9,46.1,29.62,WSW,248,5.3,12.7,65,0.04,,,0.21,WUHU216HW,2013-04-02 01:05:00,
2013-04-02 03:10:00,57.9,46.5,29.63,WSW,258,5.3,9.8,67,0.04,,,0.21,WUHU216HW,2013-04-02 01:10:00,
2013-04-02 03:15:00,57.9,46.1,29.63,South,180,8.5,9.8,65,0.04,,,0.21,WUHU216HW,2013-04-02 01:15:00,
2013-04-02 03:20:00,57.7,46.0,29.62,SW,225,7.8,8.5,65,0.02,,,0.21,WUHU216HW,2013-04-02 01:20:00,
2013-04-02 03:25:00,57.5,44.6,29.62,WSW,238,7.3,8.5,62,0.02,,,0.21,WUHU216HW,2013-04-02 01:25:00,
2013-04-02 03:30:00,57.5,44.2,29.62,SSW,194,3.6,11.8,61,0.02,,,0.21,WUHU216HW,2013-04-02 01:30:00,
2013-04-02 03:35:00,57.7,45.1,29.62,SW,225,5.8,11.8,63,0.02,,,0.21,WUHU216HW,2013-04-02 01:35:00,
2013-04-02 03:40:00,57.5,45.0,29.62,SSW,212,13.4,15.6,63,0.02,,,0.21,WUHU216HW,2013-04-02 01:40:00,
2013-04-02 03:45:00,57.5,44.6,29.62,SSW,203,7.8,15.6,62,0.04,,,0.23,WUHU216HW,2013-04-02 01:45:00,
2013-04-02 03:50:00,57.5,43.8,29.61,SW,225,7.3,12.7,60,0.04,,,0.23,WUHU216HW,2013-04-02 01:50:00,
2013-04-02 03:55:00,57.5,43.3,29.61,SSW,196,14.4,18.1,58,0.02,,,0.23,WUHU216HW,2013-04-02 01:55:00,
2013-04-02 04:00:00,57.5,41.9,29.61,SW,225,8.7,18.1,56,0.02,,,0.23,WUHU216HW,2013-04-02 02:00:00,
2013-04-02 04:05:00,57.7,42.1,29.61,SW,225,8.2,13.1,56,0.02,,,0.23,WUHU216HW,2013-04-02 02:05:00,
2013-04-02 04:10:00,57.7,42.1,29.62,North,0,0.0,13.1,56,0.02,,,0.23,WUHU216HW,2013-04-02 02:10:00,
2013-04-02 04:15:00,57.7,42.7,29.61,SW,236,8.8,11.8,57,0.02,,,0.23,WUHU216HW,2013-04-02 02:15:00,
2013-04-02 04:20:00,57.7,42.6,29.62,SW,225,13.8,13.8,57,0.02,,,0.23,WUHU216HW,2013-04-02 02:20:00,
2013-04-02 04:25:00,57.9,42.7,29.61,WSW,238,9.2,19.6,57,0.02,,,0.23,WUHU216HW,2013-04-02 02:25:00,
2013-04-02 04:30:00,57.9,42.7,29.61,SW,225,6.4,19.6,57,0.02,,,0.23,WUHU216HW,2013-04-02 02:30:00,
2013-04-02 04:35:00,57.7,42.6,29.61,SW,225,9.5,19.6,56,0.02,,,0.23,WUHU216HW,2013-04-02 02:35:00,
2013-04-02 04:40:00,57.7,42.1,29.61,SW,225,9.8,19.6,56,0.02,,,0.23,WUHU216HW,2013-04-02 02:40:00,
2013-04-02 04:45:00,57.7,42.1,29.61,SW,236,12.6,12.9,56,0.00,,,0.23,WUHU216HW,2013-04-02 02:45:00,
2013-04-02 04:50:00,57.7,42.6,29.61,SW,225,9.6,12.9,57,0.00,,,0.23,WUHU216HW,2013-04-02 02:50:00,
2013-04-02 04:55:00,57.7,43.5,29.61,SW,225,11.9,14.7,59,0.00,,,0.23,WUHU216HW,2013-04-02 02:55:00,
2013-04-02 05:00:00,57.7,43.5,29.61,West,280,10.0,14.7,59,0.00,,,0.23,WUHU216HW,2013-04-02 03:00:00,
2013-04-02 05:05:00,57.3,42.2,29.61,SW,225,11.6,12.5,57,0.02,,,0.25,WUHU216HW,2013-04-02 03:05:00,
2013-04-02 05:10:00,57.3,42.2,29.61,West,260,4.6,12.5,57,0.02,,,0.25,WUHU216HW,2013-04-02 03:10:00,
2013-04-02 05:15:00,57.3,42.2,29.61,WSW,248,13.1,13.1,57,0.02,,,0.25,WUHU216HW,2013-04-02 03:15:00,
2013-04-02 05:20:00,57.3,43.2,29.62,SW,225,8.5,13.1,59,0.02,,,0.25,WUHU216HW,2013-04-02 03:20:00,
2013-04-02 05:25:00,57.3,44.0,29.61,SW,225,11.8,15.6,61,0.02,,,0.25,WUHU216HW,2013-04-02 03:25:00,
2013-04-02 05:30:00,57.3,44.4,29.61,SW,225,8.9,15.6,62,0.02,,,0.25,WUHU216HW,2013-04-02 03:30:00,
2013-04-02 05:35:00,57.3,44.8,29.61,SW,225,19.9,19.9,63,0.02,,,0.25,WUHU216HW,2013-04-02 03:35:00,
2013-04-02 05:40:00,57.5,45.8,29.61,SSW,203,6.2,19.9,65,0.02,,,0.25,WUHU216HW,2013-04-02 03:40:00,
2013-04-02 05:45:00,57.3,45.2,29.62,SW,225,3.1,11.8,64,0.02,,,0.25,WUHU216HW,2013-04-02 03:45:00,
2013-04-02 05:50:00,57.3,44.8,29.62,SSE,158,6.7,11.1,63,0.02,,,0.25,WUHU216HW,2013-04-02 03:50:00,
2013-04-02 05:55:00,57.0,44.9,29.62,SW,225,13.4,13.4,64,0.02,,,0.25,WUHU216HW,2013-04-02 03:55:00,
2013-04-02 06:00:00,57.3,45.6,29.62,SW,225,6.7,13.4,65,0.00,,,0.25,WUHU216HW,2013-04-02 04:00:00,
2013-04-02 06:05:00,57.0,45.7,29.61,WSW,248,7.8,8.5,66,0.00,,,0.25,WUHU216HW,2013-04-02 04:05:00,
2013-04-02 06:10:00,57.0,45.7,29.61,SW,218,4.3,8.5,66,0.00,,,0.25,WUHU216HW,2013-04-02 04:10:00,
2013-04-02 06:15:00,57.0,45.7,29.62,WSW,248,9.6,9.6,66,0.00,,,0.25,WUHU216HW,2013-04-02 04:15:00,
2013-04-02 06:20:00,57.0,45.7,29.62,SW,225,5.3,12.3,66,0.00,,,0.25,WUHU216HW,2013-04-02 04:20:00,
2013-04-02 06:25:00,57.2,47.0,29.61,SW,225,15.6,20.8,69,0.00,,,0.25,WUHU216HW,2013-04-02 04:25:00,
2013-04-02 06:30:00,57.3,47.6,29.62,WSW,248,2.4,20.8,70,0.00,,,0.25,WUHU216HW,2013-04-02 04:30:00,
2013-04-02 06:35:00,57.0,46.9,29.61,SW,233,6.0,10.5,69,0.00,,,0.25,WUHU216HW,2013-04-02 04:35:00,
2013-04-02 06:40:00,57.0,46.1,29.61,SW,235,7.6,10.9,67,0.00,,,0.25,WUHU216HW,2013-04-02 04:40:00,
2013-04-02 06:45:00,57.0,46.1,29.62,SW,214,10.8,14.9,67,0.00,,,0.25,WUHU216HW,2013-04-02 04:45:00,
2013-04-02 06:50:00,57.0,46.1,29.62,WSW,237,7.0,14.9,67,0.00,,,0.25,WUHU216HW,2013-04-02 04:50:00,
2013-04-02 06:55:00,57.0,46.1,29.62,SSW,212,5.3,11.4,67,0.00,,,0.25,WUHU216HW,2013-04-02 04:55:00,
2013-04-02 07:00:00,57.0,46.1,29.62,WSW,248,9.8,14.0,67,0.00,,,0.25,WUHU216HW,2013-04-02 05:00:00,
2013-04-02 07:05:00,56.8,45.5,29.62,SSW,203,7.3,14.0,66,0.00,,,0.25,WUHU216HW,2013-04-02 05:05:00,
2013-04-02 07:10:00,56.8,45.5,29.62,SW,221,5.0,10.2,66,0.00,,,0.25,WUHU216HW,2013-04-02 05:10:00,
2013-04-02 07:15:00,56.8,45.5,29.62,SW,233,6.7,10.2,66,0.00,,,0.25,WUHU216HW,2013-04-02 05:15:00,
2013-04-02 07:20:00,56.8,45.1,29.61,SW,233,7.1,9.1,65,0.00,,,0.25,WUHU216HW,2013-04-02 05:20:00,
2013-04-02 07:25:00,57.0,45.3,29.61,SSW,203,8.5,14.0,65,0.00,,,0.25,WUHU216HW,2013-04-02 05:25:00,
2013-04-02 07:30:00,57.0,44.9,29.62,SW,225,7.6,14.0,64,0.00,,,0.25,WUHU216HW,2013-04-02 05:30:00,
2013-04-02 07:35:00,57.0,44.7,29.61,SW,225,7.8,10.2,64,0.00,,,0.25,WUHU216HW,2013-04-02 05:35:00,
2013-04-02 07:40:00,56.8,44.7,29.61,South,180,12.0,12.0,64,0.00,,,0.25,WUHU216HW,2013-04-02 05:40:00,
2013-04-02 07:45:00,56.8,45.1,29.61,South,180,10.0,12.0,65,0.00,,,0.25,WUHU216HW,2013-04-02 05:45:00,
2013-04-02 07:50:00,56.8,45.1,29.61,SW,225,10.2,11.8,65,0.00,,,0.25,WUHU216HW,2013-04-02 05:50:00,
2013-04-02 07:55:00,56.8,45.1,29.61,WSW,238,8.0,11.1,65,0.00,,,0.25,WUHU216HW,2013-04-02 05:55:00,
2013-04-02 08:00:00,56.8,45.5,29.60,SSW,203,7.9,11.1,66,0.00,,,0.25,WUHU216HW,2013-04-02 06:00:00,
2013-04-02 08:05:00,56.8,45.9,29.60,South,190,4.9,13.1,67,0.00,,,0.25,WUHU216HW,2013-04-02 06:05:00,
2013-04-02 08:10:00,56.8,45.9,29.60,SSW,197,3.8,13.1,67,0.00,,,0.25,WUHU216HW,2013-04-02 06:10:00,
2013-04-02 08:15:00,56.8,45.9,29.60,WSW,248,6.4,7.8,67,0.00,,,0.25,WUHU216HW,2013-04-02 06:15:00,
2013-04-02 08:20:00,56.8,45.9,29.60,SSW,211,3.7,8.0,67,0.00,,,0.25,WUHU216HW,2013-04-02 06:20:00,
2013-04-02 08:25:00,56.8,45.9,29.59,South,180,2.4,8.0,67,0.00,,,0.25,WUHU216HW,2013-04-02 06:25:00,
2013-04-02 08:30:00,57.0,46.5,29.59,South,180,3.8,8.5,68,0.00,,,0.25,WUHU216HW,2013-04-02 06:30:00,
2013-04-02 08:35:00,57.0,47.3,29.59,SE,135,6.4,8.5,70,0.00,,,0.25,WUHU216HW,2013-04-02 06:35:00,
2013-04-02 08:40:00,57.0,47.3,29.58,South,180,8.9,8.9,70,0.00,,,0.25,WUHU216HW,2013-04-02 06:40:00,
2013-04-02 08:45:00,57.0,47.3,29.58,SSW,203,4.4,8.9,70,0.00,,,0.25,WUHU216HW,2013-04-02 06:45:00,
2013-04-02 08:50:00,57.0,47.3,29.58,SSW,203,4.0,5.1,70,0.00,,,0.25,WUHU216HW,2013-04-02 06:50:00,
2013-04-02 08:55:00,57.0,47.3,29.59,SSW,203,8.7,8.7,70,0.00,,,0.25,WUHU216HW,2013-04-02 06:55:00,
2013-04-02 09:00:00,57.0,47.3,29.58,SW,227,2.7,8.7,70,0.00,,,0.25,WUHU216HW,2013-04-02 07:00:00,
2013-04-02 09:05:00,57.0,47.3,29.59,WSW,248,11.1,11.1,70,0.00,,,0.25,WUHU216HW,2013-04-02 07:05:00,
2013-04-02 09:10:00,57.0,47.6,29.58,SW,232,9.3,13.1,71,0.00,,,0.25,WUHU216HW,2013-04-02 07:10:00,
2013-04-02 09:15:00,57.0,48.0,29.58,SE,135,6.2,13.1,72,0.00,,,0.25,WUHU216HW,2013-04-02 07:15:00,
2013-04-02 09:20:00,57.0,48.0,29.58,SSW,203,3.8,14.0,72,0.00,,,0.25,WUHU216HW,2013-04-02 07:20:00,
2013-04-02 09:25:00,57.0,48.2,29.58,SSW,208,9.4,14.0,72,0.00,,,0.25,WUHU216HW,2013-04-02 07:25:00,
2013-04-02 09:30:00,57.2,47.6,29.57,SSE,162,6.8,11.8,71,0.00,,,0.25,WUHU216HW,2013-04-02 07:30:00,
2013-04-02 09:35:00,57.3,47.2,29.57,South,172,3.8,9.6,69,0.00,,,0.25,WUHU216HW,2013-04-02 07:35:00,
2013-04-02 09:40:00,57.5,47.8,29.57,SW,225,8.9,10.7,70,0.00,,,0.25,WUHU216HW,2013-04-02 07:40:00,
2013-04-02 09:45:00,57.9,48.5,29.57,SW,225,5.3,10.7,71,0.00,,,0.25,WUHU216HW,2013-04-02 07:45:00,
2013-04-02 09:50:00,58.1,49.4,29.57,SE,141,3.5,7.8,73,0.00,,,0.25,WUHU216HW,2013-04-02 07:50:00,
2013-04-02 09:55:00,58.2,50.0,29.57,SW,214,6.8,8.2,74,0.00,,,0.25,WUHU216HW,2013-04-02 07:55:00,
2013-04-02 10:00:00,58.6,50.7,29.57,SSW,211,6.1,11.8,75,0.00,,,0.25,WUHU216HW,2013-04-02 08:00:00,
2013-04-02 10:05:00,59.3,51.8,29.57,SW,225,10.2,13.8,76,0.00,,,0.25,WUHU216HW,2013-04-02 08:05:00,
2013-04-02 10:10:00,59.9,52.3,29.56,SW,230,9.8,13.8,76,0.00,,,0.25,WUHU216HW,2013-04-02 08:10:00,
2013-04-02 10:15:00,59.5,51.6,29.56,South,180,9.6,13.6,75,0.00,,,0.25,WUHU216HW,2013-04-02 08:15:00,
2013-04-02 10:20:00,59.7,51.8,29.56,SW,216,9.7,13.6,75,0.00,,,0.25,WUHU216HW,2013-04-02 08:20:00,
2013-04-02 10:25:00,60.4,52.8,29.57,WSW,248,14.3,14.3,76,0.00,,,0.25,WUHU216HW,2013-04-02 08:25:00,
2013-04-02 10:30:00,60.4,52.5,29.56,SSE,158,9.8,14.3,75,0.00,,,0.25,WUHU216HW,2013-04-02 08:30:00,
2013-04-02 10:35:00,60.0,51.4,29.57,SW,224,14.1,14.7,73,0.00,,,0.25,WUHU216HW,2013-04-02 08:35:00,
2013-04-02 10:40:00,59.9,51.2,29.57,SW,225,17.0,17.0,73,0.00,,,0.25,WUHU216HW,2013-04-02 08:40:00,
2013-04-02 10:45:00,60.4,51.8,29.57,WSW,256,7.4,17.0,73,0.00,,,0.25,WUHU216HW,2013-04-02 08:45:00,
2013-04-02 10:50:00,60.9,52.3,29.57,SW,225,15.6,15.8,73,0.00,,,0.25,WUHU216HW,2013-04-02 08:50:00,
2013-04-02 10:55:00,61.1,51.7,29.57,WSW,238,11.3,15.6,71,0.00,,,0.25,WUHU216HW,2013-04-02 08:55:00,
2013-04-02 11:01:00,61.5,51.9,29.56,SSW,203,12.7,19.4,71,0.00,,,0.25,WUHU216HW,2013-04-02 09:01:00,
2013-04-02 11:06:00,61.3,51.9,29.57,SW,224,11.0,19.4,71,0.00,,,0.25,WUHU216HW,2013-04-02 09:06:00,
2013-04-02 11:11:00,61.3,51.5,29.57,SW,229,13.8,19.2,70,0.00,,,0.25,WUHU216HW,2013-04-02 09:11:00,
2013-04-02 11:17:00,61.5,50.9,29.57,West,260,10.1,19.2,68,0.00,,,0.25,WUHU216HW,2013-04-02 09:17:00,
2013-04-02 11:22:00,60.9,50.8,29.57,SSW,203,12.1,21.4,69,0.00,,,0.25,WUHU216HW,2013-04-02 09:22:00,
2013-04-02 11:27:00,60.6,50.9,29.56,SW,225,11.0,21.4,70,0.00,,,0.25,WUHU216HW,2013-04-02 09:27:00,
2013-04-02 11:32:00,60.0,50.7,29.57,West,270,13.4,15.8,71,0.00,,,0.25,WUHU216HW,2013-04-02 09:32:00,
2013-04-02 11:37:00,60.0,51.0,29.58,WSW,248,8.7,15.4,72,0.00,,,0.25,WUHU216HW,2013-04-02 09:37:00,
2013-04-02 11:42:00,60.4,50.7,29.57,SSW,203,17.6,17.6,70,0.00,,,0.25,WUHU216HW,2013-04-02 09:42:00,
2013-04-02 11:47:00,61.5,51.7,29.56,South,180,11.8,17.6,70,0.00,,,0.25,WUHU216HW,2013-04-02 09:47:00,
2013-04-02 11:53:00,61.3,51.5,29.57,West,270,9.3,16.1,70,0.00,,,0.25,WUHU216HW,2013-04-02 09:53:00,
2013-04-02 11:58:00,61.5,51.7,29.57,SW,234,17.5,20.8,70,0.00,,,0.25,WUHU216HW,2013-04-02 09:58:00,
2013-04-02 12:03:00,60.9,51.2,29.57,SSW,208,8.5,20.8,70,0.00,,,0.25,WUHU216HW,2013-04-02 10:03:00,
2013-04-02 12:08:00,60.2,51.0,29.57,SW,225,14.3,14.3,71,0.00,,,0.25,WUHU216HW,2013-04-02 10:08:00,
2013-04-02 12:13:00,59.5,51.6,29.57,SW,225,9.7,14.3,75,0.00,,,0.25,WUHU216HW,2013-04-02 10:13:00,
2013-04-02 12:18:00,58.8,51.2,29.57,SSW,203,8.2,19.0,76,0.00,,,0.25,WUHU216HW,2013-04-02 10:18:00,
2013-04-02 12:23:00,59.1,51.6,29.56,SSE,158,10.5,19.0,76,0.00,,,0.25,WUHU216HW,2013-04-02 10:23:00,
2013-04-02 12:28:00,59.5,51.6,29.56,SW,225,18.3,19.4,75,0.00,,,0.25,WUHU216HW,2013-04-02 10:28:00,
2013-04-02 12:33:00,60.0,52.5,29.56,South,180,14.3,19.4,76,0.00,,,0.25,WUHU216HW,2013-04-02 10:33:00,
2013-04-02 12:38:00,59.9,51.8,29.55,SW,232,12.4,17.0,75,0.00,,,0.25,WUHU216HW,2013-04-02 10:38:00,
2013-04-02 12:43:00,59.3,51.6,29.56,SSW,203,13.4,17.0,76,0.00,,,0.25,WUHU216HW,2013-04-02 10:43:00,
2013-04-02 12:48:00,58.1,50.5,29.56,SW,221,15.9,18.7,76,0.02,,,0.27,WUHU216HW,2013-04-02 10:48:00,
2013-04-02 12:53:00,57.0,49.1,29.55,SW,223,9.4,18.7,75,0.02,,,0.27,WUHU216HW,2013-04-02 10:53:00,
2013-04-02 12:58:00,56.4,48.2,29.55,SSW,203,10.7,11.8,74,0.04,,,0.29,WUHU216HW,2013-04-02 10:58:00,
2013-04-02 13:03:00,56.8,47.1,29.55,South,180,5.7,11.4,72,0.04,,,0.29,WUHU216HW,2013-04-02 11:03:00,
2013-04-02 13:08:00,57.7,48.0,29.55,SW,225,9.8,11.8,70,0.04,,,0.29,WUHU216HW,2013-04-02 11:08:00,
2013-04-02 13:13:00,58.6,48.0,29.55,SSW,212,8.5,11.8,68,0.04,,,0.29,WUHU216HW,2013-04-02 11:13:00,
2013-04-02 13:18:00,59.1,50.1,29.55,SW,225,11.3,15.8,72,0.04,,,0.29,WUHU216HW,2013-04-02 11:18:00,
2013-04-02 13:23:00,58.8,50.9,29.55,West,270,12.3,18.3,75,0.04,,,0.29,WUHU216HW,2013-04-02 11:23:00,
2013-04-02 13:28:00,58.8,50.9,29.55,WSW,248,10.5,18.3,75,0.04,,,0.29,WUHU216HW,2013-04-02 11:28:00,
2013-04-02 13:33:00,58.2,50.3,29.55,SSW,203,14.7,19.2,75,0.04,,,0.29,WUHU216HW,2013-04-02 11:33:00,
2013-04-02 13:38:00,58.1,49.8,29.55,South,180,8.2,19.2,74,0.04,,,0.29,WUHU216HW,2013-04-02 11:38:00,
2013-04-02 13:43:00,57.9,49.2,29.55,WSW,237,10.3,16.5,73,0.02,,,0.29,WUHU216HW,2013-04-02 11:43:00,
2013-04-02 13:48:00,57.7,49.4,29.55,SSE,166,12.5,17.4,74,0.02,,,0.29,WUHU216HW,2013-04-02 11:48:00,
2013-04-02 13:53:00,57.7,49.4,29.55,SSW,193,5.0,17.4,74,0.00,,,0.29,WUHU216HW,2013-04-02 11:53:00,
2013-04-02 13:58:00,57.3,49.4,29.55,WSW,248,17.2,17.2,75,0.00,,,0.29,WUHU216HW,2013-04-02 11:58:00,
2013-04-02 14:03:00,57.2,49.2,29.56,SW,225,8.0,17.2,75,0.00,,,0.29,WUHU216HW,2013-04-02 12:03:00,
2013-04-02 14:08:00,56.8,49.2,29.56,SSW,203,21.9,21.9,76,0.02,,,0.31,WUHU216HW,2013-04-02 12:08:00,
2013-04-02 14:13:00,56.3,48.4,29.56,South,170,17.4,21.9,75,0.02,,,0.31,WUHU216HW,2013-04-02 12:13:00,
2013-04-02 14:18:00,56.4,47.5,29.55,SW,225,9.8,19.9,72,0.02,,,0.31,WUHU216HW,2013-04-02 12:18:00,
2013-04-02 14:23:00,56.1,47.1,29.55,WSW,248,11.3,13.4,72,0.02,,,0.31,WUHU216HW,2013-04-02 12:23:00,
2013-04-02 14:28:00,55.9,47.0,29.55,SSW,203,10.9,21.9,72,0.02,,,0.31,WUHU216HW,2013-04-02 12:28:00,
2013-04-02 14:33:00,53.4,46.7,29.57,SW,214,17.1,23.9,76,0.06,,,0.35,WUHU216HW,2013-04-02 12:33:00,
2013-04-02 14:38:00,51.4,43.7,29.55,West,270,8.5,23.9,75,0.14,,,0.43,WUHU216HW,2013-04-02 12:38:00,
2013-04-02 14:43:00,51.8,42.4,29.55,South,180,4.9,18.7,70,0.16,,,0.45,WUHU216HW,2013-04-02 12:43:00,
2013-04-02 14:48:00,52.8,41.7,29.55,SSW,203,7.1,10.7,66,0.16,,,0.45,WUHU216HW,2013-04-02 12:48:00,
2013-04-02 14:53:00,53.7,41.8,29.55,SSW,203,6.0,13.1,64,0.16,,,0.45,WUHU216HW,2013-04-02 12:53:00,
2013-04-02 14:58:00,53.9,41.6,29.55,SSW,212,9.0,13.1,63,0.18,,,0.47,WUHU216HW,2013-04-02 12:58:00,
2013-04-02 15:03:00,53.9,42.0,29.54,SSW,203,7.6,15.8,64,0.16,,,0.47,WUHU216HW,2013-04-02 13:03:00,
2013-04-02 15:08:00,54.5,42.9,29.54,SSW,203,6.9,15.8,65,0.16,,,0.47,WUHU216HW,2013-04-02 13:08:00,
2013-04-02 15:13:00,55.2,44.0,29.54,SSW,203,7.8,9.8,66,0.16,,,0.47,WUHU216HW,2013-04-02 13:13:00,
2013-04-02 15:18:00,56.1,44.8,29.53,SSW,203,0.0,9.8,66,0.16,,,0.47,WUHU216HW,2013-04-02 13:18:00,
2013-04-02 15:23:00,56.4,46.8,29.53,South,180,6.0,7.3,70,0.16,,,0.47,WUHU216HW,2013-04-02 13:23:00,
2013-04-02 15:28:00,56.3,47.3,29.52,SSE,158,6.4,7.3,72,0.16,,,0.47,WUHU216HW,2013-04-02 13:28:00,
2013-04-02 15:33:00,56.3,48.0,29.53,SSW,203,6.2,7.8,74,0.04,,,0.47,WUHU216HW,2013-04-02 13:33:00,
2013-04-02 15:38:00,55.9,48.4,29.53,SSW,203,14.9,17.0,76,0.04,,,0.47,WUHU216HW,2013-04-02 13:38:00,
2013-04-02 15:43:00,55.2,47.3,29.52,SW,225,11.8,17.0,75,0.02,,,0.47,WUHU216HW,2013-04-02 13:43:00,
2013-04-02 15:48:00,55.0,46.8,29.52,SSE,167,4.7,17.2,75,0.02,,,0.47,WUHU216HW,2013-04-02 13:48:00,
2013-04-02 15:54:00,55.0,46.8,29.52,SSW,192,6.8,17.2,74,0.02,,,0.47,WUHU216HW,2013-04-02 13:54:00,
2013-04-02 15:59:00,55.2,46.7,29.52,SSW,209,2.1,9.8,73,0.00,,,0.47,WUHU216HW,2013-04-02 13:59:00,
2013-04-02 16:04:00,55.0,46.5,29.52,SSW,203,13.6,13.6,73,0.00,,,0.47,WUHU216HW,2013-04-02 14:04:00,
2013-04-02 16:09:00,55.0,46.5,29.52,SW,225,6.9,13.6,72,0.00,,,0.47,WUHU216HW,2013-04-02 14:09:00,
2013-04-02 16:14:00,55.0,46.1,29.52,SW,225,6.9,11.1,72,0.00,,,0.47,WUHU216HW,2013-04-02 14:14:00,
2013-04-02 16:18:00,54.6,46.8,29.52,South,180,12.9,12.9,75,0.00,,,0.47,WUHU216HW,2013-04-02 14:18:00,
2013-04-02 16:24:00,53.9,46.2,29.52,SW,225,14.5,14.5,75,0.00,,,0.47,WUHU216HW,2013-04-02 14:24:00,
2013-04-02 16:29:00,53.4,45.3,29.52,SSW,210,3.5,14.5,74,0.02,,,0.49,WUHU216HW,2013-04-02 14:29:00,
2013-04-02 16:34:00,53.4,44.2,29.52,SSW,204,6.6,9.1,71,0.02,,,0.49,WUHU216HW,2013-04-02 14:34:00,
2013-04-02 16:39:00,53.4,44.2,29.52,South,169,4.5,9.1,71,0.02,,,0.49,WUHU216HW,2013-04-02 14:39:00,
2013-04-02 16:44:00,53.4,43.0,29.52,SSW,209,5.3,8.9,68,0.02,,,0.49,WUHU216HW,2013-04-02 14:44:00,
2013-04-02 16:49:00,53.7,41.8,29.52,SSW,203,7.4,11.8,64,0.04,,,0.51,WUHU216HW,2013-04-02 14:49:00,
2013-04-02 16:54:00,53.7,41.8,29.52,SW,225,11.1,13.8,64,0.04,,,0.51,WUHU216HW,2013-04-02 14:54:00,
2013-04-02 16:59:00,53.9,40.8,29.51,SSW,213,2.8,13.8,61,0.04,,,0.51,WUHU216HW,2013-04-02 14:59:00,
2013-04-02 17:04:00,53.7,43.4,29.52,SSW,203,8.0,8.2,68,0.04,,,0.51,WUHU216HW,2013-04-02 15:04:00,
2013-04-02 17:09:00,53.7,44.2,29.51,SSW,211,4.4,8.2,70,0.04,,,0.51,WUHU216HW,2013-04-02 15:09:00,
2013-04-02 17:14:00,53.6,44.4,29.52,SSW,212,5.3,12.9,71,0.04,,,0.51,WUHU216HW,2013-04-02 15:14:00,
2013-04-02 17:19:00,53.4,43.4,29.52,SSE,158,6.7,12.9,69,0.04,,,0.51,WUHU216HW,2013-04-02 15:19:00,
2013-04-02 17:25:00,52.8,41.7,29.52,SSE,151,5.1,10.2,66,0.02,,,0.51,WUHU216HW,2013-04-02 15:25:00,
2013-04-02 17:30:00,52.5,39.4,29.51,South,180,2.9,10.2,61,0.02,,,0.51,WUHU216HW,2013-04-02 15:30:00,
2013-04-02 17:35:00,52.7,39.5,29.50,SSE,158,2.9,7.3,61,0.02,,,0.51,WUHU216HW,2013-04-02 15:35:00,
2013-04-02 17:40:00,53.4,44.2,29.51,SE,145,9.9,14.3,71,0.02,,,0.51,WUHU216HW,2013-04-02 15:40:00,
2013-04-02 17:45:00,53.7,45.6,29.50,East,90,6.7,14.3,74,0.02,,,0.51,WUHU216HW,2013-04-02 15:45:00,
2013-04-02 17:50:00,53.7,46.0,29.51,SSE,148,11.6,13.1,75,0.00,,,0.51,WUHU216HW,2013-04-02 15:50:00,
2013-04-02 17:57:00,53.4,45.6,29.50,SE,124,5.7,13.1,75,0.00,,,0.51,WUHU216HW,2013-04-02 15:57:00,
2013-04-02 18:02:00,53.4,46.0,29.50,ESE,113,6.9,20.3,76,0.00,,,0.51,WUHU216HW,2013-04-02 16:02:00,
2013-04-02 18:07:00,53.7,46.3,29.50,South,180,8.8,20.3,76,0.00,,,0.51,WUHU216HW,2013-04-02 16:07:00,
2013-04-02 18:12:00,54.1,46.7,29.50,SE,129,10.8,13.4,76,0.00,,,0.51,WUHU216HW,2013-04-02 16:12:00,
2013-04-02 18:17:00,54.1,46.7,29.50,South,180,6.7,13.4,76,0.00,,,0.51,WUHU216HW,2013-04-02 16:17:00,
2013-04-02 18:23:00,53.7,46.3,29.50,South,178,8.4,9.1,76,0.00,,,0.51,WUHU216HW,2013-04-02 16:23:00,
2013-04-02 18:28:00,53.4,46.0,29.50,SSE,148,7.8,8.9,76,0.00,,,0.51,WUHU216HW,2013-04-02 16:28:00,
2013-04-02 18:33:00,53.4,45.3,29.50,SSE,158,12.0,12.3,74,0.03,,,0.54,WUHU216HW,2013-04-02 16:33:00,
2013-04-02 18:38:00,53.2,44.7,29.50,SW,225,11.8,22.5,73,0.05,,,0.56,WUHU216HW,2013-04-02 16:38:00,
2013-04-02 18:43:00,53.0,44.2,29.50,South,180,14.5,22.5,72,0.05,,,0.56,WUHU216HW,2013-04-02 16:43:00,
2013-04-02 18:48:00,53.2,44.4,29.50,SSE,158,10.2,15.6,72,0.05,,,0.56,WUHU216HW,2013-04-02 16:48:00,
2013-04-02 18:53:00,53.4,44.2,29.50,SW,225,8.9,18.3,71,0.05,,,0.56,WUHU216HW,2013-04-02 16:53:00,
2013-04-02 18:58:00,53.2,43.3,29.50,SSW,203,6.8,18.3,69,0.05,,,0.56,WUHU216HW,2013-04-02 16:58:00,
2013-04-02 19:03:00,52.8,41.7,29.50,SSE,162,4.1,15.6,66,0.05,,,0.56,WUHU216HW,2013-04-02 17:03:00,
2013-04-02 19:08:00,52.8,40.5,29.50,SSE,158,10.2,15.6,63,0.05,,,0.56,WUHU216HW,2013-04-02 17:08:00,
2013-04-02 19:13:00,52.7,39.2,29.49,South,177,10.6,14.7,60,0.05,,,0.56,WUHU216HW,2013-04-02 17:13:00,
2013-04-02 19:18:00,52.5,37.1,29.49,SSW,211,17.0,21.2,56,0.07,,,0.58,WUHU216HW,2013-04-02 17:18:00,
2013-04-02 19:23:00,52.5,35.8,29.49,SSE,158,17.4,21.2,53,0.07,,,0.58,WUHU216HW,2013-04-02 17:23:00,
2013-04-02 19:28:00,52.7,35.5,29.50,SSW,203,14.1,17.6,52,0.04,,,0.58,WUHU216HW,2013-04-02 17:28:00,
2013-04-02 19:33:00,52.7,35.0,29.50,SW,225,13.0,17.6,51,0.02,,,0.58,WUHU216HW,2013-04-02 17:33:00,
2013-04-02 19:38:00,52.7,35.5,29.51,SW,225,14.0,18.3,52,0.02,,,0.58,WUHU216HW,2013-04-02 17:38:00,
2013-04-02 19:44:00,52.7,36.8,29.51,SSE,149,12.5,18.3,55,0.02,,,0.58,WUHU216HW,2013-04-02 17:44:00,
2013-04-02 19:49:00,52.8,37.9,29.51,South,180,10.2,18.3,57,0.02,,,0.58,WUHU216HW,2013-04-02 17:49:00,
2013-04-02 19:54:00,52.8,40.5,29.52,SSW,203,14.5,17.0,63,0.02,,,0.58,WUHU216HW,2013-04-02 17:54:00,
2013-04-02 19:59:00,53.0,41.5,29.52,SSW,204,11.7,17.0,65,0.02,,,0.58,WUHU216HW,2013-04-02 17:59:00,
2013-04-02 20:04:00,52.8,41.3,29.53,SSW,203,6.0,16.3,65,0.02,,,0.58,WUHU216HW,2013-04-02 18:04:00,
2013-04-02 20:09:00,53.0,41.5,29.54,SSW,203,10.2,16.3,65,0.02,,,0.58,WUHU216HW,2013-04-02 18:09:00,
2013-04-02 20:14:00,53.0,42.3,29.54,South,180,14.6,18.3,67,0.00,,,0.58,WUHU216HW,2013-04-02 18:14:00,
2013-04-02 20:19:00,53.2,42.9,29.54,South,176,8.4,18.3,68,0.00,,,0.58,WUHU216HW,2013-04-02 18:19:00,
2013-04-02 20:24:00,52.8,42.9,29.54,SSW,211,11.7,18.3,69,0.00,,,0.58,WUHU216HW,2013-04-02 18:24:00,
2013-04-02 20:29:00,52.8,42.9,29.55,West,270,5.5,18.3,69,0.00,,,0.58,WUHU216HW,2013-04-02 18:29:00,
2013-04-02 20:35:00,52.8,42.6,29.56,SSW,203,6.2,8.2,68,0.00,,,0.58,WUHU216HW,2013-04-02 18:35:00,
2013-04-02 20:40:00,52.7,42.0,29.56,SSW,203,13.4,13.8,67,0.00,,,0.58,WUHU216HW,2013-04-02 18:40:00,
2013-04-02 20:45:00,52.5,42.2,29.55,SW,231,2.7,13.8,68,0.00,,,0.58,WUHU216HW,2013-04-02 18:45:00,
2013-04-02 20:50:00,52.5,42.2,29.56,WSW,238,2.8,6.2,68,0.00,,,0.58,WUHU216HW,2013-04-02 18:50:00,
2013-04-02 20:55:00,52.5,42.2,29.56,SSW,203,5.8,8.9,68,0.00,,,0.58,WUHU216HW,2013-04-02 18:55:00,
2013-04-02 21:00:00,52.5,42.2,29.57,WSW,248,4.2,9.1,68,0.00,,,0.58,WUHU216HW,2013-04-02 19:00:00,
2013-04-02 21:05:00,52.5,42.4,29.57,WSW,237,5.8,9.1,68,0.00,,,0.58,WUHU216HW,2013-04-02 19:05:00,
2013-04-02 21:10:00,52.5,42.2,29.56,South,186,4.1,6.2,68,0.00,,,0.58,WUHU216HW,2013-04-02 19:10:00,
2013-04-02 21:15:00,52.5,42.2,29.56,SSW,203,4.0,6.4,68,0.00,,,0.58,WUHU216HW,2013-04-02 19:15:00,
2013-04-02 21:20:00,52.3,42.0,29.57,WSW,237,4.8,6.9,68,0.00,,,0.58,WUHU216HW,2013-04-02 19:20:00,
2013-04-02 21:25:00,52.3,41.6,29.56,WSW,253,1.6,6.9,67,0.00,,,0.58,WUHU216HW,2013-04-02 19:25:00,
2013-04-02 21:30:00,52.3,41.2,29.58,WNW,293,4.0,4.0,66,0.00,,,0.58,WUHU216HW,2013-04-02 19:30:00,
2013-04-02 21:35:00,52.3,42.9,29.57,WSW,248,12.3,12.3,70,0.00,,,0.58,WUHU216HW,2013-04-02 19:35:00,
2013-04-02 21:40:00,52.3,43.9,29.57,SW,229,5.1,12.3,73,0.00,,,0.58,WUHU216HW,2013-04-02 19:40:00,
2013-04-02 21:45:00,52.5,44.4,29.58,WSW,248,3.1,9.8,74,0.00,,,0.58,WUHU216HW,2013-04-02 19:45:00,
2013-04-02 21:50:00,52.5,44.8,29.58,WSW,238,3.0,8.2,75,0.00,,,0.58,WUHU216HW,2013-04-02 19:50:00,
2013-04-02 21:55:00,52.5,44.8,29.58,SSW,203,6.7,7.1,75,0.00,,,0.58,WUHU216HW,2013-04-02 19:55:00,
2013-04-02 22:00:00,52.5,44.8,29.58,SW,217,2.2,6.7,75,0.00,,,0.58,WUHU216HW,2013-04-02 20:00:00,
2013-04-02 22:05:00,52.5,44.8,29.58,SSW,211,1.6,4.9,75,0.00,,,0.58,WUHU216HW,2013-04-02 20:05:00,
2013-04-02 22:11:00,52.5,44.8,29.58,SSW,203,2.6,4.0,75,0.00,,,0.58,WUHU216HW,2013-04-02 20:11:00,
2013-04-02 22:16:00,52.5,44.8,29.58,SW,225,2.9,4.0,75,0.00,,,0.58,WUHU216HW,2013-04-02 20:16:00,
2013-04-02 22:21:00,52.5,44.4,29.58,West,270,2.6,6.0,74,0.00,,,0.58,WUHU216HW,2013-04-02 20:21:00,
2013-04-02 22:26:00,52.3,44.3,29.58,West,270,3.3,6.0,74,0.00,,,0.58,WUHU216HW,2013-04-02 20:26:00,
2013-04-02 22:32:00,52.3,44.3,29.58,WSW,248,4.2,10.7,74,0.00,,,0.58,WUHU216HW,2013-04-02 20:32:00,
2013-04-02 22:37:00,52.1,44.1,29.58,WSW,237,3.0,10.7,74,0.00,,,0.58,WUHU216HW,2013-04-02 20:37:00,
2013-04-02 22:42:00,52.1,44.1,29.58,WSW,248,10.2,10.2,74,0.00,,,0.58,WUHU216HW,2013-04-02 20:42:00,
2013-04-02 22:47:00,52.1,44.1,29.59,SW,225,5.5,10.2,74,0.00,,,0.58,WUHU216HW,2013-04-02 20:47:00,
2013-04-02 22:52:00,52.1,44.1,29.59,West,270,2.6,6.4,74,0.00,,,0.58,WUHU216HW,2013-04-02 20:52:00,
2013-04-02 22:57:00,52.1,43.7,29.59,WSW,248,3.3,3.3,73,0.00,,,0.58,WUHU216HW,2013-04-02 20:57:00,
2013-04-02 23:02:00,52.1,43.7,29.59,SW,225,2.0,3.3,73,0.00,,,0.58,WUHU216HW,2013-04-02 21:02:00,
2013-04-02 23:07:00,51.9,43.6,29.59,WSW,248,0.0,3.5,73,0.00,,,0.58,WUHU216HW,2013-04-02 21:07:00,
2013-04-02 23:12:00,51.9,43.2,29.59,SSW,203,0.0,3.5,72,0.00,,,0.58,WUHU216HW,2013-04-02 21:12:00,
2013-04-02 23:17:00,51.9,42.9,29.59,SSW,203,1.1,3.1,71,0.00,,,0.58,WUHU216HW,2013-04-02 21:17:00,
2013-04-02 23:23:00,51.9,42.9,29.59,WSW,248,0.0,3.1,71,0.00,,,0.58,WUHU216HW,2013-04-02 21:23:00,
2013-04-02 23:28:00,51.9,42.9,29.59,SSW,203,2.4,3.3,71,0.00,,,0.58,WUHU216HW,2013-04-02 21:28:00,
2013-04-02 23:33:00,51.9,42.6,29.60,South,180,0.0,3.3,70,0.00,,,0.58,WUHU216HW,2013-04-02 21:33:00,
2013-04-02 23:38:00,51.9,42.6,29.60,SW,225,1.7,2.2,70,0.00,,,0.58,WUHU216HW,2013-04-02 21:38:00,
2013-04-02 23:43:00,52.1,43.1,29.59,SSW,203,0.8,2.2,71,0.00,,,0.58,WUHU216HW,2013-04-02 21:43:00,
2013-04-02 23:48:00,52.1,43.1,29.59,North,0,0.0,1.3,71,0.00,,,0.58,WUHU216HW,2013-04-02 21:48:00,
2013-04-02 23:53:00,52.1,43.1,29.60,SSW,203,0.0,2.4,71,0.00,,,0.58,WUHU216HW,2013-04-02 21:53:00,
2013-04-02 23:58:00,52.1,43.4,29.60,WSW,248,2.5,3.1,72,0.00,,,0.58,WUHU216HW,2013-04-02 21:58:00,